www.pogodaiklimat.ru

Погода и климат >> Архив погоды >> Мексика >> Matlapa


ПОГОДА в Matlapa

  • Прогноз погоды в Matlapa
  • Монитор погоды в Matlapa
  • Климат города

АРХИВ ПОГОДЫ в Matlapa

Время (UTC), дата Ветер
(напр.,м/с)
 
Видим.   Явления Облачность Т
(С)
Тd
(С)
f
(%)
Тe
(С)
Тes
(С)
Комфортность P
(гПа)
Po
(гПа)
Тmin
(С)
Tmax
(С)
R
(мм)
R24
(мм)
S
(см)
00 14.09 штиль 0 30 км 9/9 1000 м
[Cu Sc]
+26.0 +24.1 89 +36 +36 очень
душно
1010.0 994.8 +23.7 +32.0 3
12 14.09 штиль 0 3000 м 6/6 1000 м
[Sc diur, vesp]
+22.0 +21.5 97 +29 +29 очень
душно
1010.6 995.2 +21.9 +32.0 27
15 14.09 штиль 0 30 км 1/0
[Ci fib]
+25.0 +22.9 88 +33 +42 очень
душно
1012.6 997.0
18 14.09 СЗ 1 30 км 3/1 1000 м
[Cu hum Ci fib]
+30.0 +25.2 76 +44 +63 опасность
перегрева
1011.7 996.4 +21.7 +31.0
21 14.09 СЗ 1 30 км 6/3 1110 м
[Cu med, cong Cs]
+33.0 +24.5 61 +46 +55 опасность
перегрева
1009.0 993.7
00 15.09 В 1 30 км 8/8 1000 м
[Cu Sc]
+29.4 +24.6 75 +42 +42 опасность
перегрева
1009.7 994.7 +21.7 +34.3
12 15.09 штиль 0 30 км 3/3 1000 м
[Sc diur, vesp]
+23.4 +23.0 98 +33 +33 очень
душно
1011.8 996.5 +23.3 +34.3
15 15.09 штиль 0 30 км ясно +25.8 +24.1 90 +36 +45 очень
душно
1012.9 997.6
18 15.09 СЗ 1 30 км 3/3 1000 м
[Cu hum]
+31.0 +25.4 72 +45 +61 опасность
перегрева
1012.2 997.0 +22.7 +32.0
12 16.09 штиль 0 1000 м слабый дождь {туман} 9/9 600 м
[Cu Sc]
+24.0 +23.3 96 +32 +32 очень
душно
1011.6 996.4 7
15 16.09 штиль 0 5000 м слабый дождь {туман} 9/9 1000 м
[Cu Sc]
+24.5 +23.8 96 +33 +34 очень
душно
1012.5 997.3 1
18 16.09 СЗ 1 25 км мгла {туман} 9/5 600 м
[Cu Sc Ac As]
+27.0 +24.9 88 +39 +43 очень
душно
1012.5 997.2 1
12 17.09 штиль 0 5000 м в посл. час дождь {туман} 9/9 600 м
[Sc diur, vesp]
+23.2 +22.8 98 +32 +32 очень
душно
1012.3 997.0 14
15 17.09 штиль 0 20 км мгла {туман} 9/4 1200 м
[Sc diur, vesp Ac As]
+25.9 +24.8 94 +37 +39 очень
душно
1014.4 999.0
18 17.09 СЗ 1 20 км мгла {туман} 6/6 1000 м
[Cu med, cong]
+28.0 +24.7 82 +40 +49 очень
душно
1014.2 998.8 +23.1 +29.0
21 17.09 В 1 20 км мгла {туман} 9/9 1110 м
[Sc diur, vesp]
+27.2 +24.0 83 +38 +39 очень
душно
1011.8 996.6
00 18.09 В 1 20 км мгла {туман} 6/0 2000 м
[Ac trans Ci fib]
+26.2 +23.9 87 +36 +36 очень
душно
1011.2 996.0 +23.1 +30.0
12 18.09 штиль 0 25 км мгла {гроза, туман} 3/3 1000 м
[Sc diur, vesp]
+23.0 +22.6 98 +32 +32 очень
душно
1014.2 998.8 2
15 18.09 штиль 0 10 км дымка {туман} 3/3 900 м
[Cu med, cong]
+24.5 +23.3 93 +33 +39 очень
душно
1015.1 999.7
18 18.09 В 1 30 км 4/3 1000 м
[Cu med, cong Ac trans]
+30.0 +25.0 75 +43 +57 опасность
перегрева
1014.6 999.4 +22.9 +31.0
21 18.09 В 1 30 км 3/1 1110 м
[Cu hum Ac trans]
+33.4 +24.3 59 +46 +57 опасность
перегрева
1010.7 995.6
00 19.09 В 1 30 км 3/3 1000 м
[Cu hum]
+31.0 +25.4 72 +45 +46 опасность
перегрева
1010.1 995.1 +22.9 +34.0
15 19.09 штиль 0 25 км мгла {туман} 3/3 900 м
[Cu med, cong]
+26.0 +23.8 88 +36 +42 очень
душно
1013.9 998.7
18 19.09 В 1 25 км мгла {туман} 4/3 1000 м
[Cu med, cong Cc]
+30.5 +25.1 73 +44 +59 опасность
перегрева
1013.0 997.8 +23.3 +31.4
21 19.09 В 1 25 км мгла {туман} 3/3 1110 м
[Cu hum]
+33.8 +24.5 58 +46 +56 опасность
перегрева
1009.7 994.6
00 20.09 штиль 0 25 км мгла {туман} 4/0
[Cs]
+31.8 +25.0 67 +45 +46 опасность
перегрева
1009.0 994.0 +23.3 +34.0
15 20.09 штиль 0 25 км мгла {туман} 4/3 900 м
[Cu med, cong Ci fib]
+25.3 +23.9 92 +35 +41 очень
душно
1013.7 998.3
18 20.09 СЗ 1 25 км мгла {туман} 4/4 1000 м
[Cu med, cong]
+30.5 +24.4 70 +43 +56 опасность
перегрева
1012.8 997.5 +23.1 +31.3

 

Местоположение метеостанции Matlapa (Мексика): широта 21.32 долгота -98.81 высота над уровнем моря 132 м.

В архиве по умолчанию представлена погода в Matlapa за последнюю неделю. Архивные данные за месяц целиком и за предыдущие месяцы, начиная с января 2011 года, Вы можете получить, выбрав интересующий диапазон дат из раскрывающегося списка и нажав кнопку "Ввод!".


*Определитесь, кто Вы:
робот инопланетянин человек

Внимание! Время в таблицах - всемирное. Для получения местного времени необходимо прибавить поправку, которая в Matlapa равна -6 ч.

Смотрите также архив погоды в соседних городах и на ближайших метеорологических станциях:

Погода в Tamuin (Мексика) (76 км)
Погода в Pachuca (Мексика) (133 км)
Погода в Rio Verde (Мексика) (139 км)
Погода в Tampico (Мексика) (139 км)
Погода в Tulancingo (Мексика) (145 км)
Погода в Tuxpan (Мексика) (152 км)
Погода в Queretaro (Мексика) (185 км)
Погода в Mexico City (Мексика) (217 км)
Погода в Institute of Geography (Мексика) (226 км)
Погода в Tlaxcala (Мексика) (230 км)

Пояснения к столбцам:

Ветер - указаны скорость ветра в м/с - средняя за 10 мин, порывы в срок и между сроками (в фигурных скобках) и направление, откуда дует ветер: С - северный, СВ - северо-восточный, В - восточный, ЮВ - юго-восточный, Ю - южный, ЮЗ - юго-западный, З - западный, СЗ - северо-западный.
Видимость - горизонтальная дальность видимости в метрах или километрах. При видимости от 1 до 10 км при отсутствии осадков обычно наблюдается дымка, при ухудшении видимости до 1 км и менее - туман. В сухую погоду видимость может ухудшаться дымом, пылью или мглою.
Явления - указаны атмосферные явления, наблюдавшиеся в срок или в последний час перед сроком; фигурными скобками обозначены явления, наблюдавшиеся между сроками (за 1-3 часа до срока); квадратными скобками обозначены град или гололедные отложения с указанием их диаметра в мм.
Облачность - указаны через наклонную черту общая и нижняя облачность в баллах и высота нижней границы облаков в метрах; квадратными скобками обозначены формы облаков: Ci - перистые, Cs - перисто-слоистые, Cc - перисто-кучевые, Ac - высококучевые, As - высокослоистые, Sc - слоисто-кучевые, Ns - слоисто-дождевые, Cu - кучевые, Cb - кучево-дождевые. Подробнее классификацию облаков см. в Атласе облаков (PDF).
T - Температура воздуха - температура, измеренная на высоте 2 м над землей.
Td - Температура точки росы - температура, при понижении до которой содержащийся в воздухе водяной пар достигнет насыщения.
f - Относительная влажность воздуха - влажноcть воздуха, измеренная на высоте 2 м над землей.
Te - Эффективная температура - температура, которую ощущает одетый по сезону человек в тени. Характеристика душности погоды. При расчете учитывается влияние влажности воздуха и скорости ветра на теплоощущения человека.
Tes - Эффективная температура на солнце - температура, которую ощущает человек, с поправкой на солнечный нагрев. Характеристика знойности погоды. Зависит от высоты солнца над горизонтом, облачности и скорости ветра. Ночью, в пасмурную погоду, а также при ветре 12 м/с и более поправка равна нулю.
P - Атмосферное давление - приведенное к уровню моря атмосферное давление.
Po - Атмосферное давление - измеренное на уровне метеостанции атмосферное давление.
Tmin - Минимальная температура - минимум температуры воздуха на высоте 2 м над землей.
Tmax - Максимальная температура - максимум температуры воздуха на высоте 2 м над землей.
R - Количество осадков - Количество выпавших осадков за период времени, мм. При наведении курсора мыши на число - период времени, за который выпало указанное количество осадков.
R24 - Количество осадков - Количество выпавших осадков за 24 часа, мм.
S - Снежный покров - Высота снежного покрова, см. При наведении курсора мыши на число - состояние снежного покрова и степень покрытия местности в баллах.